Location: Newark
(22.3060°N, 114.2134°E)
Time: 02:36:59
(UTC+00:00)

Vanguard 2 - Pass Details

Date: 05 August 2021
Orbit: 552 x 2937 km, 32.9° (Epoch: 21 September)

Event Time Altitude Azimuth Distance (km) Brightness Sun altitude
Rises 17:17:07 0° 234° (SW) 3,964 - -49.2°
Reaches altitude 10° 17:20:26 10° 230° (SW) 2,666 - -49.0°
Maximum altitude 17:26:15 57° 153° (SSE) 819 - -48.5°
Drops below altitude 10° 17:30:23 10° 74° (ENE) 1,909 - -48.2°
Sets 17:32:25 0° 69° (ENE) 2,738 - -48.0°
